Location: Newark
(52.1752°N, 10.4140°W)
Time: 16:58:06
(UTC+00:00)

N. Korean satellite - Pass Details

Date: 15 November 2019
Orbit: 456 x 506 km, 97.2° (Epoch: 05 December)

Event Time Altitude Azimuth Distance (km) Brightness Sun altitude
Rises 06:14:02 0° 19° (NNE) 2,626 10.4 -16.3°
Reaches altitude 10° 06:16:14 10° 27° (NNE) 1,734 9.6 -16.0°
Maximum altitude 06:19:45 38° 97° (E) 781 8.2 -15.4°
Drops below altitude 10° 06:23:14 10° 167° (SSE) 1,710 9.6 -14.9°
Sets 06:25:24 0° 176° (S) 2,582 10.5 -14.6°
